RH
78 72 79 77 75 84 84 78 86 69 74 57 52 51 46 54 75 74 76 73 66 68 88 96 98 94 91 80 78 80 74 76 89 95 97 93 85 78 76 73 74 70 72 67
93 77 87 94 84 79 80 73 74 70 74 50 49 51 67 73 86 75 71 73 67 67 84 90 96 97 96 84 73 73 75 75 76 80 79 78 77 78 76 77 78 77 76 78
91 81 88 94 88 82 74 75 69 82 57 51 65 69 75 89 84 74 74 78 78 74 81 96 99 100 100 99 89 81 83 81 79 80 82 83 84 87 92 92 90 92 91 85
96 86 95 58 67 67 70 65 69 64 63 63 66 72 83 77 76 78 76 76 78 82 89 98 100 99 99 100 96 95 93 92 84 87 91 89 89 93 94 95 96 96 97 97
92 90 75 59 77 75 74 68 66 66 62 67 68 78 83 80 75 78 77 80 83 86 93 97 100 99 100 99 99 99 100 100 100 100 100 100 100 100 100 98 99 99 99 100
93 97 97 56 69 68 64 76 58 74 74 70 70 84 83 86 84 84 86 91 94 95 97 99 100 99 99 99 99 99 100 100 100 99 100 100 99 100 100 100 100 100 99 99
91 93 83 61 54 67 80 67 57 65 68 68 80 79 88 87 90 90 90 92 93 96 100 100 100 99 99 99 100 100 100 100 100 100 100 100 100 100 100 100 99 98 97 96
84 99 95 62 74 73 61 62 62 64 63 71 76 91 91 89 92 90 92 92 88 89 96 100 99 98 100 100 100 100 100 99 100 100 100 100 99 99 96 72 55 56 46 47
84 81 56 53 59 56 66 66 61 64 64 74 81 90 94 96 95 88 89 90 82 80 83 93 95 98 96 92 92 90 91 92 96 88 71 52 42 41 40 38 38 42 43 46
80 67 70 64 62 61 62 60 59 67 72 80 80 83 91 96 95 94 92 87 70 65 60 63 76 69 66 68 73 63 45 41 40 39 39 38 38 37 37 39 41 43 43 40
82 72 66 62 61 57 57 60 66 66 71 80 81 80 85 78 68 70 72 69 62 59 54 53 57 56 56 58 43 39 40 41 40 38 37 35 33 30 29 33 31 33 35 36
80 71 75 72 66 60 63 67 66 69 72 75 80 75 69 65 58 57 57 57 52 50 49 47 47 44 41 39 38 39 40 40 40 40 41 42 48 62 66 65 65 55 54 59
85 79 82 80 84 76 70 72 69 69 74 79 72 62 60 60 57 57 54 54 51 48 44 42 41 40 40 40 40 38 40 42 42 40 41 43 47 44 46 58 56 60 63 65
66 70 78 72 80 78 78 66 64 65 69 74 68 58 55 55 56 53 54 52 48 45 42 41 41 41 42 42 39 40 43 41 39 36 33 32 31 32 33 32 31 31 37 64
72 76 77 75 75 80 69 73 70 71 70 69 64 60 54 60 62 56 53 52 52 45 42 42 43 43 42 41 39 41 40 40 37 33 33 30 29 30 33 34 37 42 46 46
89 90 90 90 87 77 72 71 73 72 70 69 67 63 56 53 55 57 53 57 54 50 44 45 45 43 42 41 39 39 40 36 34 32 29 28 30 34 36 39 43 48 52 54
96 94 93 92 92 90 83 76 75 71 70 70 66 62 62 64 66 58 53 52 57 63 44 45 45 44 42 40 39 41 43 39 31 29 29 29 32 40 41 43 48 53 56 59
89 90 92 94 93 92 88 86 78 72 72 65 65 67 64 61 60 59 57 64 68 48 46 46 45 44 42 41 42 42 38 35 30 28 28 32 42 41 44 50 55 59 62 64
75 87 89 86 91 90 88 86 81 72 66 64 65 63 62 68 63 55 56 56 52 54 50 47 45 42 41 43 42 39 33 28 28 29 30 45 43 43 50 54 59 65 69 70
76 84 90 91 93 85 75 70 72 71 68 66 67 72 71 63 56 55 56 56 51 48 47 47 45 43 43 43 41 36 28 27 28 29 32 43 43 49 54 58 66 70 72 72
81 86 92 95 97 97 82 70 69 74 75 71 67 71 70 60 54 55 58 58 50 47 47 47 45 42 41 43 40 33 27 28 28 29 34 40 46 51 56 63 69 72 73 73
84 85 81 80 81 90 98 86 66 64 68 71 78 82 76 63 57 56 53 51 47 48 48 47 44 41 42 44 40 30 28 28 28 32 38 46 51 55 62 67 69 72 76 79
86 87 88 83 81 77 99 99 95 87 89 95 94 95 88 68 60 57 57 50 48 49 47 46 42 41 47 45 38 29 28 27 28 36 45 50 54 62 65 69 78 86 88 87
93 91 91 85 78 74 76 72 96 100 100 99 99 99 97 69 57 51 48 46 48 50 46 46 44 46 56 53 35 28 26 26 32 42 47 52 60 63 71 80 83 84 86 89
97 98 96 92 88 87 82 73 74 88 98 99 99 99 98 98 78 53 51 49 50 54 51 49 46 71 68 57 30 26 24 28 39 46 49 55 62 71 76 79 83 90 95 96
91 95 99 94 92 91 84 75 73 68 69 78 83 93 96 97 63 52 52 52 62 67 54 52 62 80 72 44 26 24 25 36 44 49 52 59 69 74 76 81 94 96 97 96
80 78 82 80 72 73 94 90 80 73 66 65 66 68 75 98 70 69 74 75 76 71 56 56 72 76 68 31 25 24 32 41 45 49 56 65 71 74 82 93 95 94 95 95
Wind_Speed
4 4 3 4 4 8 8 6 6 3 6 11 14 14 15 10 6 9 9 9 10 11 10 14 15 19 22 21 19 15 12 13 10 5 1 9 14 17 21 23 25 26 27 27
4 3 4 5 9 9 11 11 12 13 19 18 14 8 7 6 6 7 9 8 10 9 8 13 15 15 14 15 14 11 10 10 9 13 17 19 19 20 22 25 26 26 27 30
4 3 5 5 8 12 7 6 9 8 13 7 9 7 6 6 6 7 9 8 7 10 9 13 13 12 11 9 9 10 12 12 13 14 19 20 21 22 23 25 26 30 30 31
2 4 1 3 4 6 11 5 11 6 9 8 7 6 5 1 3 6 6 7 7 7 12 12 11 10 9 11 11 12 14 14 13 16 20 21 23 25 25 26 27 30 28 28
2 2 6 3 3 6 5 3 9 13 13 8 3 3 2 3 3 3 5 5 7 9 10 10 10 10 10 14 15 15 14 14 12 14 18 21 24 25 25 28 26 25 24 23
2 2 3 4 0 3 3 1 2 6 7 4 1 3 3 4 2 4 3 6 8 9 10 11 11 10 13 14 16 17 16 15 15 19 23 26 26 27 25 25 24 22 20 17
4 3 6 6 3 3 1 3 2 3 5 3 4 4 4 5 3 3 3 6 8 10 11 11 10 13 14 13 14 14 15 17 19 20 22 23 24 24 22 21 20 18 18 14
5 4 7 5 4 4 3 3 3 3 3 4 4 5 5 5 4 3 2 6 9 11 11 11 10 11 12 14 11 15 18 20 20 19 20 20 21 20 19 18 19 19 17 15
7 5 3 3 2 3 4 4 3 2 3 4 4 5 6 5 5 3 3 4 6 11 12 12 10 11 12 11 14 17 18 18 17 17 16 15 17 17 16 15 16 14 13 11
1 3 5 6 7 4 4 4 3 3 3 5 5 6 6 6 6 4 5 5 4 10 12 12 11 11 11 10 12 16 19 19 17 17 16 14 14 13 13 11 11 10 8 7
4 5 5 1 2 2 3 4 4 4 3 5 6 6 6 6 7 7 8 8 8 9 12 12 9 10 9 10 14 17 17 15 14 14 14 15 14 12 11 10 7 6 6 5
4 4 3 6 6 3 5 6 5 5 3 3 6 8 7 6 10 11 10 10 11 9 11 13 12 11 11 12 13 15 15 14 12 12 12 12 13 14 10 9 7 6 5 4
2 2 5 9 9 5 6 7 6 5 5 5 4 8 9 5 12 13 13 12 12 13 12 14 13 13 13 12 11 12 14 12 11 10 9 9 8 7 7 6 6 6 5 4
1 3 5 2 4 12 8 6 2 1 3 5 8 11 14 9 14 14 13 14 15 14 12 13 14 14 12 10 10 11 11 9 9 8 7 7 6 5 4 3 2 3 3 6
3 3 5 11 11 8 3 2 4 4 3 3 7 10 14 11 11 13 16 16 16 14 14 14 14 13 12 11 10 10 9 8 7 7 6 5 4 4 3 3 3 4 6 5
7 7 7 5 9 7 3 4 5 5 4 4 6 9 14 16 16 16 18 19 19 15 18 16 14 13 12 11 10 9 7 6 5 5 3 2 3 3 4 4 5 6 7 8
5 6 5 8 7 7 7 6 6 5 5 6 9 12 14 14 14 15 17 19 17 18 18 17 15 14 12 10 9 9 8 6 4 3 1 2 3 3 4 5 6 7 7 7
5 7 7 9 10 10 10 7 7 8 7 13 15 16 15 14 10 14 18 19 15 16 16 15 15 14 12 10 9 7 6 4 2 1 1 2 3 4 5 6 6 7 8 9
5 7 8 9 10 9 8 7 8 12 12 16 16 13 14 14 15 18 21 20 20 19 18 16 15 13 12 9 7 6 4 3 2 1 2 2 4 5 6 6 7 8 9 10
7 10 11 12 10 9 7 6 3 9 13 16 15 14 12 15 19 21 23 18 21 17 19 18 16 14 11 9 7 6 4 3 2 2 3 4 5 6 7 7 8 10 10 12
7 9 9 10 10 12 10 4 4 7 11 13 13 12 12 16 19 22 18 11 18 16 19 19 16 15 12 10 8 6 4 4 3 4 4 5 6 7 8 9 10 11 13 14
8 7 10 11 10 8 7 4 2 7 10 11 9 11 13 13 17 18 17 15 20 19 20 19 17 14 12 10 7 6 5 5 5 5 5 6 7 8 9 10 11 14 15 15
8 9 9 10 10 10 6 4 2 5 8 9 11 13 14 15 18 14 6 16 18 21 21 20 17 15 13 10 8 7 6 6 5 6 6 6 7 9 11 12 14 15 17 18
8 9 10 14 11 11 6 10 5 5 7 8 10 12 15 14 15 18 11 16 19 21 21 20 19 16 14 11 10 8 7 6 6 7 7 7 8 10 12 14 16 16 17 17
9 10 11 13 9 8 12 11 7 4 4 5 8 11 15 15 15 18 16 15 19 21 20 20 18 16 15 12 10 9 7 7 7 7 7 8 9 12 13 15 17 18 18 19
9 8 10 11 10 13 13 10 7 7 4 5 6 9 12 14 14 11 16 16 20 21 21 21 19 19 16 12 10 9 8 8 8 8 8 9 11 13 15 16 18 17 17 18
9 8 9 12 14 17 14 12 9 9 6 6 7 7 11 13 14 15 16 17 20 20 20 21 21 19 14 12 10 9 8 8 8 8 9 10 12 14 16 17 16 17 18 20
Wind_Direction
261 236 184 207 187 187 200 187 183 238 227 274 287 295 305 303 327 341 347 343 352 347 352 360 360 3 5 360 350 349 346 346 323 338 149 160 159 154 154 155 154 155 149 147
302 328 220 240 222 207 214 230 250 264 285 276 276 288 288 319 333 343 337 348 350 349 352 2 0 5 6 12 22 37 66 82 107 125 132 126 130 136 139 136 141 145 145 145
275 313 305 276 221 197 196 207 207 228 243 292 298 315 318 321 353 339 343 352 347 350 355 3 12 11 17 20 32 56 74 82 90 100 105 110 119 118 116 119 130 128 132 138
248 351 319 236 152 181 202 215 211 252 265 265 276 297 263 79 340 338 341 350 356 351 4 8 20 21 27 39 53 61 65 81 99 106 105 113 118 116 121 124 126 129 133 133
124 240 287 285 164 150 173 275 204 225 255 266 284 290 302 65 29 354 357 11 7 13 17 20 43 39 47 52 64 70 60 67 81 92 101 103 101 111 118 124 123 123 126 125
199 246 244 254 75 161 152 317 182 195 249 260 353 351 260 76 48 33 40 48 35 25 36 38 43 57 63 62 68 67 74 84 99 105 106 107 114 117 121 122 120 120 111 107
217 263 285 245 215 146 114 225 301 209 251 242 205 204 132 125 88 79 70 74 69 50 36 46 56 70 63 62 62 78 90 98 101 104 108 112 113 115 115 114 113 108 111 117
192 219 261 160 93 174 215 277 258 270 258 259 206 149 141 130 128 109 102 80 73 71 55 44 60 74 71 69 82 94 100 100 99 102 106 109 110 110 114 121 127 128 120 116
185 212 240 209 227 219 194 241 265 242 261 253 170 184 161 153 143 125 101 85 87 91 83 73 71 85 80 84 99 102 99 97 96 98 101 106 111 117 120 123 119 118 119 116
57 270 250 262 270 250 211 232 266 246 250 197 190 171 163 153 146 156 147 130 123 108 95 90 98 98 102 113 117 113 105 103 105 105 106 106 107 107 108 109 111 112 111 103
239 301 324 228 198 297 317 270 277 272 236 217 174 180 166 161 153 155 160 155 144 129 117 113 117 110 116 125 128 114 109 108 106 105 104 103 93 85 89 82 81 97 93 83
231 183 207 260 281 273 288 267 260 233 230 213 187 175 163 157 151 147 159 157 137 141 134 129 130 125 132 140 140 131 122 120 119 117 111 103 102 95 80 79 75 78 76 55
253 258 231 263 273 292 278 259 237 218 221 194 197 172 159 149 159 154 154 157 152 152 151 146 141 140 142 146 147 141 134 132 129 125 122 124 128 126 120 103 90 76 63 45
63 297 295 7 305 316 286 276 213 182 211 203 183 179 161 151 154 153 159 163 159 158 159 158 151 146 150 155 153 142 133 131 130 126 122 116 109 99 88 75 36 6 6 11
50 17 267 289 295 282 277 193 209 207 188 165 178 173 165 152 156 159 167 166 160 163 163 166 159 154 155 157 156 145 140 135 131 121 106 91 69 51 39 19 4 352 346 347
317 305 290 289 304 296 239 238 245 238 196 185 182 182 182 173 164 162 170 172 160 168 173 172 169 162 161 162 156 147 143 136 129 115 99 72 48 23 360 349 344 340 336 335
334 326 332 317 312 302 284 255 237 238 198 185 186 176 160 149 156 158 169 180 181 181 179 177 172 167 164 165 164 157 150 142 140 123 75 22 2 347 336 329 326 320 315 317
257 265 270 269 282 286 283 252 231 225 201 197 176 168 156 167 177 164 172 174 172 175 180 180 174 168 167 169 169 164 163 159 147 83 359 340 333 326 314 309 310 308 311 312
322 327 320 302 291 280 266 254 234 229 202 176 166 173 172 180 180 172 175 172 169 172 181 177 176 174 173 174 179 181 181 176 182 243 296 282 287 300 303 309 309 307 307 310
356 350 326 324 338 352 325 313 264 180 178 175 166 162 171 181 187 181 178 175 188 188 182 177 178 178 178 181 189 193 197 208 228 255 274 280 297 303 309 306 302 305 308 311
346 336 334 337 341 355 354 345 156 149 174 182 174 175 178 184 187 182 167 173 193 189 184 184 184 183 183 189 194 202 211 223 244 260 269 282 295 301 305 306 306 308 310 312
345 342 341 342 341 330 340 1 119 154 166 174 176 181 170 171 180 184 195 193 190 188 186 189 188 189 188 197 201 209 218 232 249 263 280 290 297 302 306 309 311 312 311 310
350 343 340 345 333 332 340 338 277 195 187 193 191 188 180 186 186 172 189 201 197 192 193 193 191 190 189 203 206 214 225 239 254 271 281 290 294 299 306 311 312 313 314 314
344 351 352 358 10 23 9 352 314 272 239 219 213 207 188 179 197 203 210 204 198 198 198 194 191 191 196 204 207 218 231 246 261 272 280 285 296 302 306 311 313 316 316 316
0 359 3 4 6 357 350 348 343 314 276 248 223 208 205 206 211 207 204 200 197 199 199 194 193 184 202 207 211 223 236 249 262 271 278 288 299 303 309 313 313 316 317 320
7 4 359 12 13 360 351 346 327 323 294 268 249 225 212 201 207 197 197 199 192 199 197 189 187 194 207 209 215 228 239 250 259 265 279 294 304 308 311 313 314 317 320 324
3 2 353 347 351 353 349 338 323 315 301 266 260 241 220 211 202 192 195 194 197 200 194 191 193 199 207 211 220 233 246 256 263 270 280 296 303 307 309 311 313 318 323 324